Location: Leuk
(46.3174°N, 7.6341°E)
Time: 07:24:40
(UTC+00:00)

ADEOS II - Pass Details

Date: 09 March 2021
Orbit: 799 x 801 km, 98.6° (Epoch: 19 April)

Event Time Altitude Azimuth Distance (km) Brightness Sun altitude
Rises 02:13:20 0° 10° (N) 3,323 5.9 -36.6°
Reaches altitude 10° 02:15:42 10° 7° (N) 2,388 5.0 -36.3°
Enters shadow 02:17:28 21° 2° (N) 1,721 4.1 -36.1°
